Regional Weather Roundup
Issued by NWS

Home | Current Version | Previous Version | Graphics & Text | Print | Product List | Glossary On
Versions: 1 2 3 4 5 6 7 8 9 10 11 12 13 14 15 16 17 18 19 20 21 22 23 24 25 26 27 28 29 30 31 32 33 34 35 36 37 38 39 40 41 42 43 44 45 46 47 48 49 50
000
ASUS44 KMEG 101410
RWRTN
TENNESSEE HOURLY STATE WEATHER ROUNDUP
NATIONAL WEATHER SERVICE MEMPHIS TN
900 AM CDT THU JUL 10 2014

TNZ002-004-019-021-049-052-054-088>092-101500-
WEST TENNESSEE

CITY           SKY/WX    TMP DP  RH WIND       PRES   REMARKS
MEMPHIS INTL   MOSUNNY   82  70  66 CALM      30.09R
NWS MEMPHIS      N/A     81 N/A N/A MISG        N/A
JACKSON        MOSUNNY   76  69  79 NE3       30.10R
DYERSBURG      MOSUNNY   75  63  64 CALM      30.11R
UNION CITY     SUNNY     75  66  73 SE3       30.08S
PARIS          MOSUNNY   74  66  75 CALM      30.11R
LEXINGTON      SUNNY     73  70  88 CALM      30.10R
$$

TNZ008-025-027-028-033-062-065-066-101500-
NORTH MIDDLE TENNESSEE

CITY           SKY/WX    TMP DP  RH WIND       PRES   REMARKS
NASHVILLE      PTSUNNY   78  68  71 E3        30.11R
DICKSON        SUNNY     75  64  69 N3        30.11R
PORTLAND       SUNNY     75  63  64 CALM      30.10R
CLARKSVILLE    MOSUNNY   75  65  70 SE3       30.10R
SMYRNA         MOSUNNY   78  71  79 N3        30.11R
MURFREESBORO   SUNNY     77  68  73 E3        30.09R
COOKEVILLE     PTSUNNY   73  70  88 CALM      30.11R
LIVINGSTON     SUNNY     72  66  81 CALM      30.12R
GALLATIN       SUNNY     73  71  93 CALM      30.12R
CROSSVILLE     MOSUNNY   73  65  75 NE3       30.15R
$$

TNZ061-075-076-078-094-096-097-101500-
SOUTH MIDDLE TENNESSEE

CITY           SKY/WX    TMP DP  RH WIND       PRES   REMARKS
LEWISBURG      PTSUNNY   73  68  84 NE5       30.10R
TULLAHOMA      PTSUNNY   73  70  88 CALM      30.13R
WINCHESTER     CLOUDY    75  70  83 CALM      30.11S
MCMINNVILLE    MOSUNNY   77  77 100 E6        30.11R
COLUMBIA       SUNNY     79  70  73 CALM      30.09R
$$

TNZ017-018-042-046-047-101500-
NORTHEAST TENNESSEE

CITY           SKY/WX    TMP DP  RH WIND       PRES   REMARKS
TRI CITIES     MOSUNNY   74  65  73 CALM      30.13S
ELIZABETHTON   MOSUNNY   73  66  78 CALM      30.13S
$$

TNZ012-013-036-069-073-074-101500-
CENTRAL EAST TENNESSEE

CITY           SKY/WX    TMP DP  RH WIND       PRES   REMARKS
KNOXVILLE      PTSUNNY   74  68  81 CALM      30.10R
OAK RIDGE      CLOUDY    72  68  87 CALM      30.12R
$$

TNZ083-085-099-101500-
SOUTHEAST TENNESSEE

CITY           SKY/WX    TMP DP  RH WIND       PRES   REMARKS
CHATTANOOGA    CLOUDY    76  70  82 CALM      30.10R
$$

SKY/WX REPORTED AS FAIR MEANS FEW OR NO CLOUDS BELOW
12 THOUSAND FEET.



USA.gov is the U.S. government's official web portal to all federal, state and local government web resources and services.